When you browse on this site, cookies collect data to enhance your experience and personalize the content and advertising you see.
Visit our Privacy Policy to learn more. By continuing to use the site, you agree to this use of cookies and data.
  • en Suisse
  • Liste des pays
  • À 7 jours
  • Température de l'eau
  • Carte météo
  • Widgets météo
  • user-avatar
    Se connecter

    Météo par heure à Cabimas

    Ce jour, 19 Septembre, Jeudi

    Heure Température Précipitation Vent Pression Humidité
    00:00 +28°C° 0.5 mm 3 m/s 756 mmHg 86%
    01:00 +28°C° 0.5 mm 3 m/s 755 mmHg 88%
    02:00 +27°C° 1.8 mm 3 m/s 755 mmHg 89%
    03:00 +27°C° 1.8 mm 3 m/s 755 mmHg 90%
    04:00 +27°C° 1.8 mm 3 m/s 755 mmHg 91%
    05:00 +27°C° 1.4 mm 2 m/s 755 mmHg 90%
    06:00 +28°C° 1.4 mm 2 m/s 756 mmHg 89%
    07:00 +28°C° 1.4 mm 2 m/s 756 mmHg 88%
    08:00 +29°C° 0.5 mm 3 m/s 756 mmHg 85%
    09:00 +30°C° 0.5 mm 3 m/s 757 mmHg 82%
    10:00 +30°C° 0.5 mm 4 m/s 757 mmHg 79%
    11:00 +32°C° 0 mm 4 m/s 756 mmHg 73%
    12:00 +33°C° 0 mm 4 m/s 755 mmHg 67%
    13:00 +34°C° 0 mm 3 m/s 754 mmHg 60%
    14:00 +34°C° 0 mm 3 m/s 754 mmHg 61%
    15:00 +34°C° 0 mm 2 m/s 754 mmHg 62%
    16:00 +32°C° 0 mm 2 m/s 754 mmHg 63%
    17:00 +31°C° 0 mm 1 m/s 754 mmHg 68%
    18:00 +30°C° 0 mm 1 m/s 755 mmHg 73%
    19:00 +29°C° 0 mm 1 m/s 755 mmHg 78%
    20:00 +29°C° 0 mm 1 m/s 756 mmHg 77%
    21:00 +28°C° 0 mm 2 m/s 756 mmHg 77%
    22:00 +28°C° 0 mm 3 m/s 757 mmHg 77%
    23:00 +28°C° 0.4 mm 4 m/s 757 mmHg 77%

    Demain, 20 Septembre, Vendredi

    Heure Température Précipitation Vent Pression Humidité
    00:00 +28°C° 0.4 mm 4 m/s 757 mmHg 78%
    01:00 +29°C° 0.4 mm 5 m/s 756 mmHg 79%
    02:00 +28°C° 0.8 mm 5 m/s 756 mmHg 80%
    03:00 +28°C° 0.8 mm 4 m/s 757 mmHg 81%
    04:00 +27°C° 0.8 mm 4 m/s 757 mmHg 82%
    05:00 +28°C° 2 mm 3 m/s 757 mmHg 83%
    06:00 +28°C° 2 mm 2 m/s 758 mmHg 84%
    07:00 +28°C° 2 mm 1 m/s 758 mmHg 84%
    08:00 +29°C° 0.6 mm 1 m/s 758 mmHg 81%
    09:00 +30°C° 0.6 mm 1 m/s 759 mmHg 78%
    10:00 +31°C° 0.6 mm 1 m/s 759 mmHg 75%
    11:00 +31°C° 0.1 mm 1 m/s 758 mmHg 75%
    12:00 +31°C° 0.1 mm 1 m/s 757 mmHg 74%
    13:00 +31°C° 0.1 mm 1 m/s 757 mmHg 74%
    14:00 +31°C° 0.1 mm 2 m/s 756 mmHg 73%
    15:00 +31°C° 0.1 mm 2 m/s 756 mmHg 71%
    16:00 +32°C° 0.1 mm 2 m/s 756 mmHg 70%
    17:00 +30°C° 1.1 mm 3 m/s 756 mmHg 75%
    18:00 +29°C° 1.1 mm 3 m/s 757 mmHg 80%
    19:00 +28°C° 1.1 mm 3 m/s 757 mmHg 85%
    20:00 +28°C° 0.3 mm 3 m/s 758 mmHg 85%
    21:00 +28°C° 0.3 mm 3 m/s 758 mmHg 86%
    22:00 +28°C° 0.3 mm 3 m/s 759 mmHg 86%
    23:00 +28°C° 0.1 mm 3 m/s 758 mmHg 87%

    Après-demain, 21 Septembre, Samedi

    Heure Température Précipitation Vent Pression Humidité
    00:00 +27°C° 0.1 mm 3 m/s 758 mmHg 87%
    01:00 +27°C° 0.1 mm 3 m/s 758 mmHg 87%
    02:00 +27°C° 0.1 mm 2 m/s 758 mmHg 88%
    03:00 +27°C° 0.1 mm 2 m/s 758 mmHg 89%
    04:00 +27°C° 0.1 mm 1 m/s 758 mmHg 90%
    05:00 +27°C° 0.9 mm 2 m/s 758 mmHg 89%
    06:00 +27°C° 0.9 mm 2 m/s 758 mmHg 88%
    07:00 +28°C° 0.9 mm 2 m/s 759 mmHg 87%
    08:00 +29°C° 0.9 mm 2 m/s 759 mmHg 81%
    09:00 +31°C° 0.9 mm 2 m/s 759 mmHg 75%
    10:00 +32°C° 0.9 mm 2 m/s 759 mmHg 69%
    11:00 +32°C° 0.4 mm 2 m/s 758 mmHg 69%
    12:00 +34°C° 0.4 mm 2 m/s 757 mmHg 69%
    13:00 +34°C° 0.4 mm 2 m/s 756 mmHg 69%
    14:00 +32°C° 0.4 mm 1 m/s 756 mmHg 72%
    15:00 +32°C° 0.4 mm 1 m/s 755 mmHg 75%
    16:00 +31°C° 0.4 mm 1 m/s 755 mmHg 79%
    17:00 +30°C° 0.9 mm 2 m/s 756 mmHg 83%
    18:00 +29°C° 0.9 mm 3 m/s 756 mmHg 87%
    19:00 +28°C° 0.9 mm 4 m/s 756 mmHg 92%
    20:00 +28°C° 1.4 mm 4 m/s 757 mmHg 92%
    21:00 +27°C° 1.4 mm 3 m/s 757 mmHg 92%
    22:00 +27°C° 1.4 mm 2 m/s 758 mmHg 92%
    23:00 +27°C° 0.6 mm 2 m/s 758 mmHg 93%

    22 Septembre, Dimanche

    Heure Température Précipitation Vent Pression Humidité
    00:00 +27°C° 0.6 mm 2 m/s 757 mmHg 93%
    01:00 +27°C° 0.6 mm 2 m/s 757 mmHg 93%
    02:00 +27°C° 2.4 mm 2 m/s 757 mmHg 94%
    03:00 +26°C° 2.4 mm 3 m/s 757 mmHg 94%
    04:00 +26°C° 2.4 mm 3 m/s 757 mmHg 95%
    05:00 +27°C° 1.9 mm 3 m/s 757 mmHg 94%
    06:00 +27°C° 1.9 mm 2 m/s 758 mmHg 92%
    07:00 +27°C° 1.9 mm 2 m/s 758 mmHg 91%
    08:00 +29°C° 1.8 mm 2 m/s 758 mmHg 85%
    09:00 +31°C° 1.8 mm 2 m/s 758 mmHg 79%
    10:00 +32°C° 1.8 mm 2 m/s 758 mmHg 73%
    11:00 +34°C° 0.2 mm 2 m/s 757 mmHg 68%
    12:00 +35°C° 0.2 mm 2 m/s 757 mmHg 63%
    13:00 +35°C° 0.2 mm 1 m/s 756 mmHg 57%
    14:00 +34°C° 0.2 mm 1 m/s 756 mmHg 60%
    15:00 +34°C° 0.2 mm 1 m/s 755 mmHg 63%
    16:00 +33°C° 0.2 mm 1 m/s 755 mmHg 66%
    17:00 +31°C° 0.3 mm 1 m/s 755 mmHg 72%
    18:00 +30°C° 0.3 mm 1 m/s 756 mmHg 78%
    19:00 +29°C° 0.3 mm 1 m/s 756 mmHg 84%
    20:00 +28°C° 1.6 mm 3 m/s 757 mmHg 87%
    21:00 +28°C° 1.6 mm 4 m/s 757 mmHg 89%
    22:00 +28°C° 1.6 mm 5 m/s 758 mmHg 92%
    23:00 +27°C° 1.9 mm 5 m/s 758 mmHg 92%

    23 Septembre, Lundi

    Heure Température Précipitation Vent Pression Humidité
    00:00 +27°C° 1.9 mm 5 m/s 758 mmHg 93%
    01:00 +27°C° 1.9 mm 5 m/s 757 mmHg 93%
    02:00 +27°C° 2.4 mm 4 m/s 757 mmHg 94%
    03:00 +27°C° 2.4 mm 4 m/s 757 mmHg 95%
    04:00 +26°C° 2.4 mm 3 m/s 757 mmHg 95%
    05:00 +27°C° 2.3 mm 4 m/s 758 mmHg 95%
    06:00 +27°C° 2.3 mm 4 m/s 758 mmHg 94%
    07:00 +27°C° 2.3 mm 4 m/s 759 mmHg 93%
    08:00 +29°C° 1 mm 4 m/s 759 mmHg 89%
    09:00 +30°C° 1 mm 4 m/s 759 mmHg 85%
    10:00 +32°C° 1 mm 4 m/s 759 mmHg 81%
    11:00 +33°C° 0.7 mm 3 m/s 759 mmHg 77%
    12:00 +32°C° 0.7 mm 2 m/s 758 mmHg 73%
    13:00 +33°C° 0.7 mm 1 m/s 757 mmHg 68%
    14:00 +33°C° 0.2 mm 1 m/s 757 mmHg 71%
    15:00 +32°C° 0.2 mm 1 m/s 756 mmHg 74%
    16:00 +32°C° 0.2 mm 1 m/s 756 mmHg 76%
    17:00 +31°C° 0.4 mm 1 m/s 756 mmHg 80%
    18:00 +29°C° 0.4 mm 1 m/s 756 mmHg 83%
    19:00 +28°C° 0.4 mm 2 m/s 757 mmHg 87%
    20:00 +28°C° 1.1 mm 2 m/s 757 mmHg 88%
    21:00 +28°C° 1.1 mm 3 m/s 758 mmHg 89%
    22:00 +28°C° 1.1 mm 4 m/s 758 mmHg 90%
    23:00 +27°C° 2 mm 3 m/s 758 mmHg 91%

    24 Septembre, Mardi

    Heure Température Précipitation Vent Pression Humidité
    00:00 +27°C° 2 mm 3 m/s 757 mmHg 92%
    01:00 +27°C° 2 mm 2 m/s 757 mmHg 93%
    02:00 +27°C° 1.9 mm 2 m/s 757 mmHg 93%
    03:00 +27°C° 1.9 mm 2 m/s 757 mmHg 93%
    04:00 +27°C° 1.9 mm 1 m/s 757 mmHg 93%
    05:00 +27°C° 1 mm 2 m/s 758 mmHg 92%
    06:00 +27°C° 1 mm 2 m/s 758 mmHg 92%
    07:00 +28°C° 1 mm 2 m/s 759 mmHg 91%
    08:00 +29°C° 0.3 mm 2 m/s 759 mmHg 85%
    09:00 +30°C° 0.3 mm 2 m/s 758 mmHg 79%
    10:00 +32°C° 0.3 mm 2 m/s 758 mmHg 73%
    11:00 +32°C° 0.1 mm 2 m/s 758 mmHg 69%
    12:00 +34°C° 0.1 mm 2 m/s 757 mmHg 66%
    13:00 +34°C° 0.1 mm 2 m/s 756 mmHg 62%
    14:00 +34°C° 0.1 mm 2 m/s 756 mmHg 64%
    15:00 +33°C° 0.1 mm 1 m/s 756 mmHg 66%
    16:00 +32°C° 0.1 mm 1 m/s 755 mmHg 67%
    17:00 +31°C° 0.2 mm 1 m/s 756 mmHg 72%
    18:00 +30°C° 0.2 mm 2 m/s 757 mmHg 77%
    19:00 +28°C° 0.2 mm 2 m/s 757 mmHg 81%
    20:00 +28°C° 0.5 mm 3 m/s 758 mmHg 84%
    21:00 +27°C° 0.5 mm 4 m/s 758 mmHg 86%
    22:00 +27°C° 0.5 mm 5 m/s 759 mmHg 88%
    23:00 +27°C° 0.4 mm 4 m/s 758 mmHg 89%
    Voir plus